| time (UTC) | temp C | wind direction | speed KPH | gust KPH | rain 1hr cm | rain 24hr cm | rain mn cm | humidity % | barometer mb |
| 20260502160803 | 13 | 0 | 9.7 | 20.9 | 0.00 | 0.00 | 0.00 | 35 | 1018.4 |
| 20260502160303 | 13 | 0 | 8.0 | 22.5 | 0.00 | 0.00 | 0.00 | 35 | 1018.4 |
| 20260502152305 | 12 | 0 | 12.9 | 22.5 | 0.00 | 0.00 | 0.00 | 42 | 1018.5 |
| 20260502151804 | 12 | 0 | 9.7 | 22.5 | 0.00 | 0.00 | 0.00 | 42 | 1018.6 |
| 20260502151303 | 12 | 0 | 6.4 | 19.3 | 0.00 | 0.00 | 0.00 | 42 | 1018.5 |
| 20260502150803 | 12 | 0 | 3.2 | 12.9 | 0.00 | 0.00 | 0.00 | 42 | 1018.6 |
| 20260502150303 | 12 | 0 | 8.0 | 16.1 | 0.00 | 0.00 | 0.00 | 42 | 1018.6 |
| 20260502130304 | 6 | 0 | 1.6 | 4.8 | 0.00 | 0.00 | 0.00 | 60 | 1019.1 |
| 20260502123804 | 3 | 0 | 1.6 | 4.8 | 0.00 | 0.00 | 0.00 | 73 | 1019.1 |
| 20260502123303 | 3 | 0 | 3.2 | 4.8 | 0.00 | 0.00 | 0.00 | 73 | 1019.1 |
| 20260502122305 | 2 | 0 | 1.6 | 4.8 | 0.00 | 0.00 | 0.00 | 73 | 1019.1 |
| 20260502121803 | 1 | 0 | 1.6 | 4.8 | 0.00 | 0.00 | 0.00 | 73 | 1019.0 |
| 20260502121303 | 1 | 0 | 1.6 | 4.8 | 0.00 | 0.00 | 0.00 | 73 | 1019.0 |
| 20260502120803 | 0 | 0 | 3.2 | 4.8 | 0.00 | 0.00 | 0.00 | 73 | 1019.1 |
| 20260502120304 | 0 | 0 | 1.6 | 3.2 | 0.00 | 0.00 | 0.00 | 73 | 1019.0 |
| 20260502115803 | 0 | 0 | 0.0 | 3.2 | 0.00 | 0.00 | 0.00 | 75 | 1019.1 |
| 20260502115305 | 0 | 0 | 0.0 | 1.6 | 0.00 | 0.00 | 0.00 | 75 | 1019.0 |
| 20260502114803 | 0 | 0 | 0.0 | 1.6 | 0.00 | 0.00 | 0.00 | 75 | 1019.0 |
| 20260502114303 | 0 | 307 | 0.0 | 1.6 | 0.00 | 0.00 | 0.00 | 75 | 1019.0 |
| 20260502113803 | -1 | 306 | 0.0 | 1.6 | 0.00 | 0.00 | 0.00 | 75 | 1019.0 |
| 20260502113303 | -1 | 347 | 0.0 | 1.6 | 0.00 | 0.00 | 0.00 | 75 | 1018.9 |
| 20260502112804 | -1 | 348 | 0.0 | 1.6 | 0.00 | 0.00 | 0.00 | 75 | 1018.9 |
| 20260502111804 | -1 | 348 | 0.0 | 1.6 | 0.00 | 0.00 | 0.00 | 75 | 1018.9 |
| 20260502111304 | -1 | 348 | 0.0 | 0.0 | 0.00 | 0.00 | 0.00 | 75 | 1018.8 |
| 20260502110803 | -1 | 348 | 0.0 | 0.0 | 0.00 | 0.00 | 0.00 | 75 | 1018.9 |
| 20260502110303 | -1 | 348 | 0.0 | 0.0 | 0.00 | 0.00 | 0.00 | 75 | 1018.9 |
| 20260502105803 | -1 | 348 | 0.0 | 0.0 | 0.00 | 0.00 | 0.00 | 73 | 1018.9 |
| 20260502104803 | -1 | 348 | 0.0 | 0.0 | 0.00 | 0.00 | 0.00 | 73 | 1018.8 |
| 20260502104303 | -1 | 348 | 0.0 | 0.0 | 0.00 | 0.00 | 0.00 | 73 | 1018.9 |
| 20260502103803 | -1 | 348 | 0.0 | 0.0 | 0.00 | 0.00 | 0.00 | 73 | 1018.8 |
| 20260502103303 | -1 | 348 | 0.0 | 0.0 | 0.00 | 0.00 | 0.00 | 73 | 1018.8 |
| 20260502102803 | -1 | 348 | 0.0 | 0.0 | 0.00 | 0.00 | 0.00 | 73 | 1018.8 |
| 20260502102306 | -1 | 348 | 0.0 | 0.0 | 0.00 | 0.00 | 0.00 | 73 | 1018.9 |
| 20260502101803 | -1 | 348 | 0.0 | 0.0 | 0.00 | 0.00 | 0.00 | 73 | 1018.9 |
| 20260502101303 | -1 | 348 | 0.0 | 0.0 | 0.00 | 0.00 | 0.00 | 73 | 1018.9 |
| 20260502100803 | -1 | 348 | 0.0 | 0.0 | 0.00 | 0.00 | 0.00 | 73 | 1018.9 |
| 20260502100303 | -1 | 348 | 0.0 | 0.0 | 0.00 | 0.00 | 0.00 | 73 | 1018.9 |
| 20260502091303 | -1 | 348 | 0.0 | 0.0 | 0.00 | 0.00 | 0.00 | 71 | 1019.0 |
| 20260502090803 | -1 | 348 | 0.0 | 0.0 | 0.00 | 0.00 | 0.00 | 71 | 1019.0 |
| 20260502090303 | -1 | 348 | 0.0 | 0.0 | 0.00 | 0.00 | 0.00 | 71 | 1018.9 |
| 20260502071303 | -1 | 348 | 0.0 | 0.0 | 0.00 | 0.00 | 0.00 | 65 | 1019.0 |
| 20260502070804 | -1 | 348 | 0.0 | 0.0 | 0.00 | 0.00 | 0.00 | 65 | 1019.0 |
| 20260502065803 | -1 | 348 | 0.0 | 0.0 | 0.00 | 0.00 | 0.00 | 65 | 1019.1 |
| 20260502065306 | -1 | 348 | 0.0 | 0.0 | 0.00 | 0.00 | 0.00 | 65 | 1019.1 |
| 20260502064804 | -1 | 348 | 0.0 | 0.0 | 0.00 | 0.00 | 0.00 | 65 | 1019.1 |
| 20260502064303 | -1 | 348 | 0.0 | 0.0 | 0.00 | 0.00 | 0.00 | 65 | 1019.1 |
| 20260502063804 | -1 | 348 | 0.0 | 0.0 | 0.00 | 0.00 | 0.00 | 65 | 1019.2 |
| 20260502062803 | -1 | 348 | 0.0 | 0.0 | 0.00 | 0.00 | 0.00 | 65 | 1019.2 |
| 20260502062306 | 0 | 348 | 0.0 | 0.0 | 0.00 | 0.00 | 0.00 | 65 | 1019.2 |
| 20260502061803 | 0 | 348 | 0.0 | 0.0 | 0.00 | 0.00 | 0.00 | 65 | 1019.2 |
| 20260502061303 | 0 | 348 | 0.0 | 0.0 | 0.00 | 0.00 | 0.00 | 65 | 1019.2 |
| 20260502060803 | 0 | 348 | 0.0 | 0.0 | 0.00 | 0.00 | 0.00 | 65 | 1019.1 |
| 20260502060303 | 0 | 348 | 0.0 | 0.0 | 0.00 | 0.00 | 0.00 | 65 | 1019.1 |
| 20260502055804 | 0 | 348 | 0.0 | 0.0 | 0.00 | 0.00 | 0.00 | 66 | 1019.1 |
| 20260502055305 | 0 | 348 | 0.0 | 0.0 | 0.00 | 0.00 | 0.00 | 66 | 1019.1 |
| 20260502054804 | 0 | 348 | 0.0 | 0.0 | 0.00 | 0.00 | 0.00 | 66 | 1019.1 |
| 20260502054304 | 0 | 348 | 0.0 | 0.0 | 0.00 | 0.00 | 0.00 | 66 | 1019.1 |
| 20260502053803 | 0 | 348 | 0.0 | 0.0 | 0.00 | 0.00 | 0.00 | 66 | 1019.1 |
| 20260502051803 | 0 | 348 | 0.0 | 0.0 | 0.00 | 0.00 | 0.00 | 66 | 1019.1 |
| 20260502051303 | 0 | 348 | 0.0 | 0.0 | 0.00 | 0.00 | 0.00 | 66 | 1019.1 |
| 20260502050814 | 0 | 348 | 0.0 | 0.0 | 0.00 | 0.00 | 0.00 | 66 | 1019.0 |
| 20260502050303 | 0 | 348 | 0.0 | 0.0 | 0.00 | 0.00 | 0.00 | 66 | 1019.0 |
| 20260502045804 | 0 | 348 | 0.0 | 0.0 | 0.00 | 0.00 | 0.00 | 64 | 1019.0 |
| 20260502044804 | 0 | 348 | 0.0 | 0.0 | 0.00 | 0.00 | 0.00 | 64 | 1019.0 |
| 20260502044304 | 0 | 348 | 0.0 | 0.0 | 0.00 | 0.00 | 0.00 | 64 | 1019.0 |
| 20260502043803 | 0 | 348 | 0.0 | 0.0 | 0.00 | 0.00 | 0.00 | 64 | 1019.0 |
| 20260502043303 | 0 | 348 | 0.0 | 0.0 | 0.00 | 0.00 | 0.00 | 64 | 1019.0 |
| 20260502042803 | 1 | 348 | 0.0 | 0.0 | 0.00 | 0.00 | 0.00 | 64 | 1019.1 |
| 20260502042306 | 1 | 348 | 0.0 | 0.0 | 0.00 | 0.00 | 0.00 | 64 | 1019.0 |
| 20260502041804 | 1 | 348 | 0.0 | 0.0 | 0.00 | 0.00 | 0.00 | 64 | 1019.1 |
| 20260502041304 | 1 | 348 | 0.0 | 0.0 | 0.00 | 0.00 | 0.00 | 64 | 1019.0 |
| 20260502040303 | 1 | 348 | 0.0 | 0.0 | 0.00 | 0.00 | 0.00 | 60 | 1019.0 |
| 20260502035804 | 1 | 348 | 0.0 | 0.0 | 0.00 | 0.00 | 0.00 | 41 | 1018.9 |
| 20260502035306 | 1 | 348 | 0.0 | 0.0 | 0.00 | 0.00 | 0.00 | 41 | 1019.0 |
| 20260502034804 | 1 | 348 | 0.0 | 0.0 | 0.00 | 0.00 | 0.00 | 41 | 1019.0 |
| 20260502034303 | 1 | 348 | 0.0 | 0.0 | 0.00 | 0.00 | 0.00 | 41 | 1019.0 |
| 20260502033803 | 1 | 348 | 0.0 | 0.0 | 0.00 | 0.00 | 0.00 | 41 | 1019.0 |
| 20260502033303 | 2 | 348 | 0.0 | 0.0 | 0.00 | 0.00 | 0.00 | 41 | 1019.0 |
| 20260502032803 | 2 | 0 | 0.0 | 0.0 | 0.00 | 0.00 | 0.00 | 41 | 1019.0 |
| 20260502032306 | 2 | 0 | 0.0 | 0.0 | 0.00 | 0.00 | 0.00 | 41 | 1019.0 |
| 20260502031804 | 2 | 0 | 0.0 | 0.0 | 0.00 | 0.00 | 0.00 | 41 | 1019.0 |
| 20260502031303 | 2 | 0 | 0.0 | 0.0 | 0.00 | 0.00 | 0.00 | 41 | 1019.0 |
| 20260502030303 | 2 | 0 | 0.0 | 0.0 | 0.00 | 0.00 | 0.00 | 41 | 1018.9 |
| 20260502025306 | 2 | 0 | 0.0 | 0.0 | 0.00 | 0.00 | 0.00 | 41 | 1019.0 |
| 20260502024303 | 3 | 359 | 0.0 | 0.0 | 0.00 | 0.00 | 0.00 | 41 | 1018.9 |
| 20260502023803 | 3 | 0 | 0.0 | 0.0 | 0.00 | 0.00 | 0.00 | 41 | 1018.9 |
| 20260502023303 | 3 | 0 | 0.0 | 0.0 | 0.00 | 0.00 | 0.00 | 41 | 1018.9 |
| 20260502022306 | 3 | 0 | 0.0 | 0.0 | 0.00 | 0.00 | 0.00 | 41 | 1018.8 |
| 20260502021803 | 4 | 0 | 0.0 | 0.0 | 0.00 | 0.00 | 0.00 | 41 | 1018.8 |
| 20260502021303 | 4 | 0 | 0.0 | 0.0 | 0.00 | 0.00 | 0.00 | 41 | 1018.7 |
| 20260502020804 | 5 | 0 | 0.0 | 0.0 | 0.00 | 0.00 | 0.00 | 41 | 1018.7 |
| 20260502020304 | 5 | 0 | 0.0 | 0.0 | 0.00 | 0.00 | 0.00 | 41 | 1018.6 |
| 20260502015804 | 5 | 0 | 0.0 | 0.0 | 0.00 | 0.00 | 0.00 | 36 | 1018.6 |
| 20260502015305 | 5 | 0 | 0.0 | 0.0 | 0.00 | 0.00 | 0.00 | 36 | 1018.5 |
| 20260502014803 | 5 | 0 | 0.0 | 0.0 | 0.00 | 0.00 | 0.00 | 36 | 1018.5 |
| 20260502013804 | 6 | 0 | 0.0 | 0.0 | 0.00 | 0.00 | 0.00 | 36 | 1018.4 |
| 20260502013303 | 6 | 0 | 0.0 | 0.0 | 0.00 | 0.00 | 0.00 | 36 | 1018.4 |
| 20260502012804 | 6 | 0 | 0.0 | 0.0 | 0.00 | 0.00 | 0.00 | 36 | 1018.4 |
| 20260502012306 | 7 | 358 | 0.0 | 0.0 | 0.00 | 0.00 | 0.00 | 36 | 1018.3 |
| 20260502011804 | 7 | 0 | 0.0 | 0.0 | 0.00 | 0.00 | 0.00 | 36 | 1018.3 |
| 20260502011303 | 7 | 358 | 0.0 | 0.0 | 0.00 | 0.00 | 0.00 | 36 | 1018.3 |
| 20260502010803 | 8 | 351 | 0.0 | 3.2 | 0.00 | 0.00 | 0.00 | 36 | 1018.2 |
| 20260502010304 | 8 | 0 | 3.2 | 4.8 | 0.00 | 0.00 | 0.00 | 36 | 1018.2 |
| 20260502005803 | 8 | 358 | 3.2 | 4.8 | 0.00 | 0.00 | 0.00 | 30 | 1018.2 |
| 20260502005306 | 8 | 0 | 3.2 | 8.0 | 0.00 | 0.00 | 0.00 | 30 | 1018.2 |
| 20260502004304 | 9 | 0 | 4.8 | 12.9 | 0.00 | 0.00 | 0.00 | 30 | 1018.1 |
| 20260502003804 | 9 | 0 | 3.2 | 8.0 | 0.00 | 0.00 | 0.00 | 30 | 1018.1 |
| 20260502003304 | 9 | 0 | 4.8 | 9.7 | 0.00 | 0.00 | 0.00 | 30 | 1018.0 |
| 20260502002804 | 10 | 0 | 4.8 | 9.7 | 0.00 | 0.00 | 0.00 | 30 | 1018.0 |
| 20260502002305 | 10 | 0 | 3.2 | 8.0 | 0.00 | 0.00 | 0.00 | 30 | 1018.0 |
| 20260502001803 | 10 | 0 | 4.8 | 12.9 | 0.00 | 0.00 | 0.00 | 30 | 1018.0 |
| 20260502001303 | 10 | 356 | 6.4 | 12.9 | 0.00 | 0.00 | 0.00 | 30 | 1018.0 |
| 20260502000803 | 9 | 0 | 8.0 | 14.5 | 0.00 | 0.00 | 0.00 | 30 | 1017.9 |
| 20260502000303 | 9 | 0 | 4.8 | 9.7 | 0.00 | 0.00 | 0.00 | 30 | 1017.9 |
| 20260501235804 | 10 | 0 | 8.0 | 14.5 | 0.00 | 0.00 | 0.00 | 31 | 1017.9 |
| 20260501235305 | 10 | 0 | 6.4 | 12.9 | 0.00 | 0.00 | 0.00 | 31 | 1017.9 |
| 20260501234803 | 10 | 0 | 8.0 | 19.3 | 0.00 | 0.00 | 0.00 | 31 | 1017.9 |
| 20260501234304 | 10 | 0 | 9.7 | 16.1 | 0.00 | 0.00 | 0.00 | 31 | 1017.9 |
| 20260501233303 | 10 | 0 | 8.0 | 19.3 | 0.00 | 0.00 | 0.00 | 31 | 1017.8 |
| 20260501232803 | 10 | 0 | 9.7 | 16.1 | 0.00 | 0.00 | 0.00 | 31 | 1017.8 |
| 20260501232305 | 10 | 0 | 6.4 | 16.1 | 0.00 | 0.00 | 0.00 | 31 | 1017.8 |
| 20260501231803 | 9 | 0 | 4.8 | 14.5 | 0.00 | 0.00 | 0.00 | 31 | 1017.9 |
| 20260501231303 | 9 | 0 | 4.8 | 12.9 | 0.00 | 0.00 | 0.00 | 31 | 1017.9 |
| 20260501230803 | 9 | 0 | 6.4 | 14.5 | 0.00 | 0.00 | 0.00 | 31 | 1017.9 |
| 20260501225804 | 10 | 0 | 6.4 | 12.9 | 0.00 | 0.00 | 0.00 | 31 | 1017.9 |
| 20260501225306 | 10 | 0 | 11.3 | 19.3 | 0.00 | 0.00 | 0.00 | 31 | 1017.8 |
| 20260501224803 | 11 | 0 | 8.0 | 19.3 | 0.00 | 0.00 | 0.00 | 31 | 1017.8 |
| 20260501224303 | 11 | 0 | 9.7 | 19.3 | 0.00 | 0.00 | 0.00 | 31 | 1017.8 |
| 20260501223803 | 11 | 0 | 6.4 | 19.3 | 0.00 | 0.00 | 0.00 | 31 | 1017.8 |
| 20260501223304 | 10 | 0 | 14.5 | 24.1 | 0.00 | 0.00 | 0.00 | 31 | 1017.9 |
| 20260501222804 | 11 | 0 | 11.3 | 19.3 | 0.00 | 0.00 | 0.00 | 31 | 1017.8 |
| 20260501222305 | 11 | 0 | 8.0 | 16.1 | 0.00 | 0.00 | 0.00 | 31 | 1017.8 |
| 20260501221803 | 11 | 0 | 14.5 | 20.9 | 0.00 | 0.00 | 0.00 | 31 | 1017.8 |
| 20260501221303 | 11 | 0 | 14.5 | 22.5 | 0.00 | 0.00 | 0.00 | 31 | 1017.8 |
| 20260501220804 | 11 | 0 | 11.3 | 16.1 | 0.00 | 0.00 | 0.00 | 31 | 1017.8 |
| 20260501220303 | 11 | 358 | 8.0 | 19.3 | 0.00 | 0.00 | 0.00 | 31 | 1017.8 |
| 20260501215803 | 11 | 0 | 9.7 | 19.3 | 0.00 | 0.00 | 0.00 | 32 | 1017.7 |
| 20260501215305 | 12 | 0 | 12.9 | 20.9 | 0.00 | 0.00 | 0.00 | 32 | 1017.7 |
| 20260501214303 | 11 | 0 | 8.0 | 19.3 | 0.00 | 0.00 | 0.00 | 32 | 1017.7 |
| 20260501213803 | 11 | 0 | 11.3 | 22.5 | 0.00 | 0.00 | 0.00 | 32 | 1017.7 |
| 20260501213303 | 11 | 0 | 12.9 | 25.7 | 0.00 | 0.00 | 0.00 | 32 | 1017.8 |
| 20260501212804 | 11 | 0 | 3.2 | 9.7 | 0.00 | 0.00 | 0.00 | 32 | 1017.7 |
| 20260501212306 | 10 | 0 | 9.7 | 19.3 | 0.00 | 0.00 | 0.00 | 32 | 1017.8 |
| 20260501211804 | 11 | 0 | 9.7 | 19.3 | 0.00 | 0.00 | 0.00 | 32 | 1017.8 |
| 20260501211304 | 11 | 358 | 6.4 | 16.1 | 0.00 | 0.00 | 0.00 | 32 | 1017.8 |
| 20260501210303 | 11 | 0 | 4.8 | 14.5 | 0.00 | 0.00 | 0.00 | 32 | 1017.8 |
| 20260501205803 | 11 | 0 | 8.0 | 19.3 | 0.00 | 0.00 | 0.00 | 34 | 1017.9 |
| 20260501205306 | 11 | 0 | 6.4 | 19.3 | 0.00 | 0.00 | 0.00 | 34 | 1017.9 |
| 20260501204304 | 12 | 0 | 9.7 | 19.3 | 0.00 | 0.00 | 0.00 | 34 | 1017.9 |
| 20260501203803 | 11 | 0 | 9.7 | 19.3 | 0.00 | 0.00 | 0.00 | 34 | 1017.9 |
| 20260501203303 | 11 | 0 | 11.3 | 19.3 | 0.00 | 0.00 | 0.00 | 34 | 1018.0 |
| 20260501202803 | 11 | 0 | 9.7 | 19.3 | 0.00 | 0.00 | 0.00 | 34 | 1018.1 |
| 20260501202306 | 10 | 0 | 12.9 | 20.9 | 0.00 | 0.00 | 0.00 | 34 | 1018.1 |
| 20260501201304 | 10 | 0 | 11.3 | 19.3 | 0.00 | 0.00 | 0.00 | 34 | 1018.1 |
| 20260501200304 | 11 | 0 | 11.3 | 27.4 | 0.00 | 0.00 | 0.00 | 34 | 1018.2 |
| 20260501195803 | 11 | 0 | 9.7 | 19.3 | 0.00 | 0.00 | 0.00 | 36 | 1018.2 |
| 20260501195306 | 11 | 0 | 11.3 | 19.3 | 0.00 | 0.00 | 0.00 | 36 | 1018.1 |
| 20260501194803 | 10 | 0 | 12.9 | 19.3 | 0.00 | 0.00 | 0.00 | 36 | 1018.1 |
| 20260501194303 | 10 | 347 | 9.7 | 20.9 | 0.00 | 0.00 | 0.00 | 36 | 1018.1 |
| 20260501193303 | 10 | 0 | 4.8 | 12.9 | 0.00 | 0.00 | 0.00 | 36 | 1018.0 |
| 20260501192803 | 10 | 0 | 9.7 | 19.3 | 0.00 | 0.00 | 0.00 | 36 | 1018.1 |
| 20260501192306 | 10 | 0 | 6.4 | 22.5 | 0.00 | 0.00 | 0.00 | 36 | 1018.1 |
| 20260501191304 | 10 | 358 | 14.5 | 22.5 | 0.00 | 0.00 | 0.00 | 36 | 1018.1 |
| 20260501190803 | 10 | 0 | 9.7 | 20.9 | 0.00 | 0.00 | 0.00 | 36 | 1018.2 |
| 20260501190303 | 10 | 0 | 14.5 | 20.9 | 0.00 | 0.00 | 0.00 | 36 | 1018.1 |
| 20260501185306 | 10 | 0 | 8.0 | 19.3 | 0.00 | 0.00 | 0.00 | 39 | 1018.1 |
| 20260501184803 | 10 | 358 | 9.7 | 24.1 | 0.00 | 0.00 | 0.00 | 39 | 1018.2 |
| 20260501184303 | 10 | 0 | 6.4 | 22.5 | 0.00 | 0.00 | 0.00 | 39 | 1018.1 |
| 20260501183803 | 10 | 0 | 6.4 | 19.3 | 0.00 | 0.00 | 0.00 | 39 | 1018.2 |
| 20260501183304 | 10 | 359 | 14.5 | 25.7 | 0.00 | 0.00 | 0.00 | 39 | 1018.2 |
| 20260501182803 | 10 | 0 | 4.8 | 14.5 | 0.00 | 0.00 | 0.00 | 39 | 1018.2 |
| 20260501182306 | 10 | 0 | 11.3 | 20.9 | 0.00 | 0.00 | 0.00 | 39 | 1018.3 |
| 20260501181803 | 9 | 0 | 11.3 | 25.7 | 0.00 | 0.00 | 0.00 | 39 | 1018.2 |
| 20260501180803 | 10 | 352 | 4.8 | 20.9 | 0.00 | 0.00 | 0.00 | 39 | 1018.2 |
| 20260501180303 | 10 | 0 | 16.1 | 24.1 | 0.00 | 0.00 | 0.00 | 39 | 1018.3 |
| 20260501175803 | 10 | 0 | 16.1 | 25.7 | 0.00 | 0.00 | 0.00 | 40 | 1018.4 |
| 20260501175306 | 10 | 0 | 11.3 | 25.7 | 0.00 | 0.00 | 0.00 | 40 | 1018.3 |
| 20260501174804 | 10 | 0 | 16.1 | 25.7 | 0.00 | 0.00 | 0.00 | 40 | 1018.4 |
| 20260501173804 | 9 | 0 | 9.7 | 19.3 | 0.00 | 0.00 | 0.00 | 40 | 1018.5 |
| 20260501173303 | 9 | 0 | 16.1 | 29.0 | 0.00 | 0.00 | 0.00 | 40 | 1018.5 |
| 20260501172803 | 10 | 0 | 14.5 | 24.1 | 0.00 | 0.00 | 0.00 | 40 | 1018.5 |
| 20260501172305 | 9 | 0 | 11.3 | 22.5 | 0.00 | 0.00 | 0.00 | 40 | 1018.4 |
| 20260501171804 | 8 | 0 | 16.1 | 25.7 | 0.00 | 0.00 | 0.00 | 40 | 1018.4 |
| 20260501171303 | 9 | 0 | 11.3 | 19.3 | 0.00 | 0.00 | 0.00 | 40 | 1018.4 |
| 20260501170804 | 9 | 0 | 11.3 | 19.3 | 0.00 | 0.00 | 0.00 | 40 | 1018.3 |
| 20260501170303 | 9 | 0 | 12.9 | 29.0 | 0.00 | 0.00 | 0.00 | 40 | 1018.4 |
| 20260501165803 | 8 | 0 | 14.5 | 24.1 | 0.00 | 0.00 | 0.00 | 41 | 1018.4 |
| 20260501165306 | 9 | 0 | 11.3 | 20.9 | 0.00 | 0.00 | 0.00 | 41 | 1018.4 |
| 20260501164803 | 9 | 260 | 6.4 | 16.1 | 0.00 | 0.00 | 0.00 | 41 | 1018.4 |
| 20260501164304 | 8 | 186 | 11.3 | 19.3 | 0.00 | 0.00 | 0.00 | 41 | 1018.4 |
| 20260501163303 | 9 | 347 | 9.7 | 25.7 | 0.00 | 0.00 | 0.00 | 41 | 1018.4 |
| 20260501162803 | 8 | 144 | 9.7 | 20.9 | 0.00 | 0.00 | 0.00 | 41 | 1018.4 |
| 20260501162306 | 8 | 336 | 9.7 | 24.1 | 0.00 | 0.00 | 0.00 | 41 | 1018.3 |
| 20260501161303 | 8 | 3 | 12.9 | 20.9 | 0.00 | 0.00 | 0.00 | 41 | 1018.5 |